Hourly Data Report for April 07, 2017

CLYDE RIVER A
NUNAVUT

70°29'09.000" N
68°31'01.000" W
26.50 m
2400804
71090
YCY

Download Data

Hourly Data (April 2017)
Hourly Data Report for April 7, 2017
TIME
LST
Temp Definition
°C
Dew Point Definition
°C
Rel Hum Definition
%
Precip. Amount Definition
mm

Wind Dir Definition
10's deg

Wind Spd Definition
km/h
Visibility Definition
km
Stn Press Definition
kPa
Hmdx Definition


Wind Chill Definition


Weather Definition


00:00 -19.4 -21.2 86 0.0 7 5 2.0 101.32   -24 Fog
01:00 -20.3 -22.2 85 0.0 4 8 16.1 101.30   -27 LegendNANA
02:00 -21.1 -23.2 84 0.0 2 5 2.0 101.30   -26 Fog
03:00 -21.6 -23.7 83 0.0 3 8 1.2 101.29   -28 Fog
04:00 -21.2 -23.3 83 0.0 1 5 0.2 101.30   -26 Freezing Fog
05:00 -21.0 -23.0 84 0.0 34 9 0.2 101.29   -28 Heavy Snow
06:00 -19.0 -20.6 87 0.0 1 11 16.1 101.30   -26 LegendNANA
07:00 -18.3 -20.1 86 0.0 34 13 16.1 101.29   -26 LegendNANA
08:00 -18.2 -20.0 86 0.0 35 15 16.1 101.29   -27 LegendNANA
09:00 -17.6 -19.4 86 0.0 34 13 16.1 101.28   -25 LegendNANA
10:00 -16.6 -18.3 87 0.0 34 15 16.1 101.27   -25 LegendNANA
11:00 -15.8 -17.4 88 0.0 36 9 16.1 101.26   -22 LegendNANA
12:00 -14.9 -16.4 89 0.0 34 9 16.1 101.26   -21 LegendNANA
13:00 -14.8 -16.4 88 0.0 36 9 16.1 101.26   -21 LegendNANA
14:00 -14.5 -15.9 89 0.0 33 5 16.1 101.29   -18 LegendNANA
15:00 -14.4 -15.9 89 0.0 3 4 16.1 101.30   -17 LegendNANA
16:00 -14.3 -15.7 89 0.0 35 8 16.1 101.32   -20 LegendNANA
17:00 -14.5 -16.1 88 0.0 35 5 16.1 101.33   -18 LegendNANA
18:00 -15.4 -17.0 88 0.0 31 9 16.1 101.35   -21 LegendNANA
19:00 -15.5 -17.1 88 0.0 LegendMM 4 16.1 101.36   -18 LegendNANA
20:00 -15.8 -17.4 88 0.0 LegendMM 5 16.1 101.36   -20 Snow
21:00 -16.3 -18.0 87 0.0 33 8 16.1 101.35   -22 LegendNANA
22:00 -16.0 -17.7 87 0.0 LegendMM 4 16.1 101.35   -19 LegendNANA
23:00 -16.2 -17.8 88 0.0   0 16.1 101.38     LegendNANA

Notes on Data Quality.

Legend

  • E = Estimated
  • M = Missing
  • NA = Not Available*
  • [empty] = Indicates an unobserved value
Date modified: